Overview Statistics Trail Chart Weather Telemetry Raw packets
 

This is the latest recevied weather packets stored in our database for station/object K7SKM. If no packets are shown the sender has not sent any weather packets the latest 10 day(s).

<< 46 47 48 49 50 51 52 >>
Time Temp. Humidity Pressure Rain* Wind** Luminosity Snow
1788362759 15.56° C 81% 1011.4 hPa 0 mm - 82 W/m² -
1788362454 15.56° C 82% 1011.6 hPa 0 mm - 69 W/m² -
1788362150 15° C 82% 1011.8 hPa 0 mm - 76 W/m² -
1788361853 15° C 84% 1011.7 hPa 0 mm - 81 W/m² -
1788361544 15° C 87% 1011.8 hPa 0 mm - 80 W/m² -
1788361240 14.44° C 87% 1011.9 hPa 0 mm - 63 W/m² -
1788360935 14.44° C 87% 1011.9 hPa 0 mm - 56 W/m² -
1788360634 14.44° C 88% 1012.1 hPa 0 mm - 47 W/m² -
1788360331 13.89° C 88% 1012 hPa 0 mm - 37 W/m² -
1788360031 13.89° C 88% 1012.2 hPa 0 mm - 28 W/m² -
1788359726 13.89° C 88% 1012.3 hPa 0 mm - 25 W/m² -
1788359422 13.89° C 88% 1012.2 hPa 0 mm - 24 W/m² -
1788359117 13.89° C 88% 1012.3 hPa 0 mm - 27 W/m² -
1788358812 13.89° C 88% 1012.3 hPa 0 mm - 30 W/m² -
1788358507 13.89° C 88% 1012.3 hPa 0 mm - 27 W/m² -
1788358202 13.89° C 88% 1012.3 hPa 0 mm - 25 W/m² -
1788357897 13.89° C 89% 1012.3 hPa 0 mm - 20 W/m² -
1788357596 13.89° C 89% 1012.1 hPa 0 mm - 17 W/m² -
1788357291 13.33° C 89% 1012.6 hPa 0 mm - 10 W/m² -
1788356986 13.33° C 89% 1012.4 hPa 0 mm - 7 W/m² -
1788356682 13.33° C 89% 1012.6 hPa 0 mm - 5 W/m² -
1788356382 13.89° C 88% 1012.3 hPa 0 mm - 2 W/m² -
1788356077 13.89° C 88% 1012.1 hPa 0 mm - 0 W/m² -
1788355772 13.33° C 88% 1012.5 hPa 0 mm - 0 W/m² -
1788355467 13.89° C 88% 1012.3 hPa 0 mm - 0 W/m² -

* Rain latest hour (hover to see other rain measurements)
** Current wind speed in m/s (hover to see current wind gust speed)